Flag for Sao Tome and Principe Weather past 2 weeks in São Tomé, Sao Tome and Principe

Now
73 °F

Passing clouds.


Feels Like: 70 °F
Forecast: 76 / 79 °F
Wind: 5 mph from South

Location: S. Tome

Current Time: Oct 2, 2014 at 3:16:14 AM

Latest Report: Oct 2, 2014 at 1:00 AM


Visibility: N/A

Pressure: 29.95 "Hg

Humidity: 94%

Dew point: 72 °F

Location of São ToméLocation

Historic Weather in São Tomé — Graph

°F

São Tomé temperature yesterday

Maximum temperature yesterday: 84 °F (at 12:00 PM)
Minimum temperature yesterday: 72 °F (at 6:00 AM)
Average temperature yesterday: 78 °F

Past Weeks' High & Low Weather Summary

 TemperatureHumidityPressure
High84 °F (Sep 17, 12:00 PM)94% (Sep 17, 4:00 AM)30.01 "Hg (Sep 17, 4:00 AM)
Low72 °F (Sep 28, 12:00 AM)66% (Sep 19, 3:00 PM)29.86 "Hg (Sep 17, 4:00 PM)
Average78 °F83%29.94 "Hg
* Reported Sep 17 1:00 AM — Oct 2 1:00 AM, São Tomé, Weather by CustomWeather, © 2014

Note: Actual official high and low records may vary slightly from our data, if they occured in-between our weather recording intervals... More about our weather records

Advertising

São Tomé weather history for previous 24 hours

 ConditionsComfort  
Time TempWeatherWind HumidityBarometerVisibility
1:00 AM
Oct 2
73 °FPassing clouds.5 mph94%29.95 "HgN/A
12:00 AM73 °FPassing clouds.2 mph94%29.98 "HgN/A
11:00 PM
Oct 1
73 °FPassing clouds.5 mph94%29.98 "HgN/A
8:00 PM75 °FPassing clouds.5 mph83%29.92 "HgN/A
7:00 PM77 °FPassing clouds.2 mph79%29.89 "HgN/A
6:00 PM79 °FPassing clouds.3 mph79%29.89 "HgN/A
5:00 PM81 °FScattered clouds.2 mph70%29.86 "HgN/A
4:00 PM82 °FBroken clouds.2 mph66%29.86 "HgN/A
3:00 PM82 °FPartly sunny.5 mph66%29.86 "HgN/A
2:00 PM84 °FScattered clouds.16 mph70%29.89 "HgN/A
1:00 PM84 °FPassing clouds.14 mph70%29.92 "HgN/A
12:00 PM84 °FPassing clouds.12 mph70%29.95 "HgN/A
11:00 AM82 °FPassing clouds.5 mph74%29.95 "HgN/A
10:00 AM82 °FScattered clouds.5 mph70%29.98 "HgN/A
9:00 AM79 °FScattered clouds.2 mph79%29.98 "HgN/A
8:00 AM79 °FPartly sunny.5 mph79%29.98 "HgN/A
7:00 AM73 °FPartly sunny.2 mph89%29.98 "HgN/A
6:00 AM72 °FPartly sunny.2 mph94%29.95 "HgN/A
5:00 AM73 °FPassing clouds.2 mph89%29.95 "HgN/A
4:00 AM73 °FPassing clouds.5 mph89%29.95 "HgN/A
Weather by CustomWeather, © 2014

See weather overviewHow to use our weather pages